TimeMDT,TemperatureF,Dew PointF,Humidity,Sea Level PressureIn,VisibilityMPH,Wind Direction,Wind SpeedMPH,Gust SpeedMPH,PrecipitationIn,Events,Conditions,WindDirDegrees,DateUTC
12:53 AM,42.1,28.9,60,29.82,10.0,NW,8.1,-,N/A,,Partly Cloudy,310,2013-04-10 06:53:00
1:53 AM,43.0,30.0,60,29.81,10.0,West,6.9,-,N/A,,Overcast,260,2013-04-10 07:53:00
2:53 AM,39.9,30.0,68,29.81,10.0,West,9.2,-,N/A,,Overcast,260,2013-04-10 08:53:00
3:53 AM,39.0,30.0,70,29.82,10.0,WNW,6.9,-,N/A,,Clear,290,2013-04-10 09:53:00
4:53 AM,39.9,28.9,65,29.82,10.0,West,9.2,-,N/A,,Clear,270,2013-04-10 10:53:00
5:53 AM,34.0,26.1,73,29.85,10.0,Calm,Calm,-,N/A,,Clear,0,2013-04-10 11:53:00
6:53 AM,36.0,26.1,67,29.86,10.0,Calm,Calm,-,N/A,,Clear,0,2013-04-10 12:53:00
7:53 AM,39.9,28.0,63,29.88,10.0,WSW,6.9,-,N/A,,Clear,250,2013-04-10 13:53:00
8:53 AM,46.0,28.9,51,29.89,10.0,WSW,10.4,-,N/A,,Clear,250,2013-04-10 14:53:00
9:53 AM,51.1,27.0,39,29.87,-9999.0,West,15.0,20.7,N/A,,Clear,270,2013-04-10 15:53:00
11:53 AM,59.0,18.0,20,29.83,10.0,West,15.0,21.9,N/A,,Clear,260,2013-04-10 17:53:00
12:53 PM,59.0,17.1,20,29.82,10.0,West,15.0,29.9,N/A,,Partly Cloudy,270,2013-04-10 18:53:00
1:53 PM,60.1,17.1,19,29.81,10.0,WNW,17.3,27.6,N/A,,Mostly Cloudy,290,2013-04-10 19:53:00
2:53 PM,62.1,17.1,18,29.80,10.0,West,18.4,29.9,N/A,,Mostly Cloudy,270,2013-04-10 20:53:00
3:53 PM,61.0,18.0,19,29.79,10.0,West,24.2,33.4,N/A,,Partly Cloudy,280,2013-04-10 21:53:00
4:53 PM,60.1,19.9,21,29.78,10.0,WNW,26.5,32.2,N/A,,Mostly Cloudy,290,2013-04-10 22:53:00
5:53 PM,59.0,21.0,23,29.81,10.0,West,18.4,27.6,N/A,,Scattered Clouds,280,2013-04-10 23:53:00
6:53 PM,57.9,21.0,24,29.82,10.0,WNW,20.7,26.5,N/A,,Overcast,290,2013-04-11 00:53:00
7:53 PM,55.0,21.0,27,29.83,10.0,WNW,12.7,21.9,N/A,,Clear,290,2013-04-11 01:53:00
8:53 PM,53.1,23.0,31,29.85,10.0,NW,11.5,-,N/A,,Clear,310,2013-04-11 02:53:00
9:53 PM,51.1,23.0,33,29.86,10.0,NW,8.1,-,N/A,,Clear,310,2013-04-11 03:53:00
10:53 PM,48.0,21.9,36,29.88,10.0,West,9.2,-,N/A,,Clear,280,2013-04-11 04:53:00
11:53 PM,48.0,21.9,36,29.88,10.0,North,6.9,-,N/A,,Clear,10,2013-04-11 05:53:00